IBS15WH LEMD-GCTS

Flight info

Callsign IBS15WH
Flight time N/A
Altitude 37000
Route CCS DCT ELVAR DCT TROIA DCT BEXAL UN866 KONBA
Aircraft A320/M-SDE3FGHIRWY/LB1

Departure

Time N/A
Airport Adolfo Suárez Madrid–Barajas Airport (LEMD)

Arrival

Time 2026-05-03 22:40
Airport Tenerife Sur Airport (GCTS)
Time Latitude Longitude Altitude Speed Heading
2026-05-03 20:42 36.70218 -10.57498 37118 ft 377 kts 229°
2026-05-03 20:42 36.68324 -10.59772 37118 ft 377 kts 229°
2026-05-03 20:43 36.64539 -10.64308 37119 ft 378 kts 229°
2026-05-03 20:43 36.60755 -10.68854 37118 ft 378 kts 229°
2026-05-03 20:44 36.56971 -10.73397 37125 ft 378 kts 229°
2026-05-03 20:44 36.53189 -10.77932 37122 ft 378 kts 229°
2026-05-03 20:45 36.49400 -10.82449 37077 ft 378 kts 229°
2026-05-03 20:45 36.45634 -10.86940 37100 ft 378 kts 229°
2026-05-03 20:46 36.41840 -10.91472 37112 ft 378 kts 229°
2026-05-03 20:46 36.38036 -10.96000 37124 ft 379 kts 229°
2026-05-03 20:47 36.34228 -11.00524 37128 ft 379 kts 229°
2026-05-03 20:47 36.30421 -11.05056 37132 ft 379 kts 229°
2026-05-03 20:48 36.26604 -11.09576 37134 ft 379 kts 229°
2026-05-03 20:48 36.22810 -11.14058 37143 ft 379 kts 229°
2026-05-03 20:49 36.18994 -11.18571 37103 ft 379 kts 229°
2026-05-03 20:49 36.15171 -11.23082 37113 ft 380 kts 229°
2026-05-03 20:50 36.11343 -11.27593 37118 ft 380 kts 229°
2026-05-03 20:50 36.07508 -11.32099 37138 ft 380 kts 229°
2026-05-03 20:51 36.03696 -11.36573 37131 ft 380 kts 229°
2026-05-03 20:51 35.99859 -11.41083 37132 ft 381 kts 229°
2026-05-03 20:52 35.95931 -11.45483 37135 ft 385 kts 221°
2026-05-03 20:52 35.91555 -11.49319 37105 ft 386 kts 221°
2026-05-03 20:53 35.87173 -11.53172 37113 ft 386 kts 221°
2026-05-03 20:53 35.82827 -11.56997 37119 ft 386 kts 221°
2026-05-03 20:54 35.78440 -11.60850 37128 ft 387 kts 221°
2026-05-03 20:54 35.71855 -11.66599 37134 ft 387 kts 221°
2026-05-03 20:55 35.67471 -11.70436 37115 ft 387 kts 221°
2026-05-03 20:55 35.63075 -11.74273 37112 ft 387 kts 221°
2026-05-03 20:56 35.58675 -11.78100 37129 ft 388 kts 221°
2026-05-03 20:56 35.54287 -11.81906 37137 ft 388 kts 221°
2026-05-03 20:57 35.49856 -11.85761 37139 ft 388 kts 221°
2026-05-03 20:57 35.45478 -11.89564 37142 ft 388 kts 221°
2026-05-03 20:58 35.41072 -11.93383 37153 ft 388 kts 221°
2026-05-03 20:58 35.36659 -11.97201 37148 ft 388 kts 221°
2026-05-03 20:59 35.32249 -12.01004 37147 ft 388 kts 221°
2026-05-03 20:59 35.27828 -12.04816 37143 ft 388 kts 221°
2026-05-03 21:00 35.24878 -12.07356 37143 ft 388 kts 221°
2026-05-03 21:00 35.19008 -12.12417 37150 ft 388 kts 221°
2026-05-03 21:01 35.14583 -12.16223 37148 ft 388 kts 221°
2026-05-03 21:01 35.10163 -12.20006 37121 ft 388 kts 221°
2026-05-03 21:02 35.05746 -12.23787 37131 ft 388 kts 221°
2026-05-03 21:02 35.01356 -12.27553 37138 ft 388 kts 221°
2026-05-03 21:03 34.96936 -12.31325 37144 ft 388 kts 221°
2026-05-03 21:03 34.92509 -12.35090 37150 ft 388 kts 221°
2026-05-03 21:04 34.88088 -12.38860 37153 ft 388 kts 221°
2026-05-03 21:04 34.83668 -12.42625 37127 ft 388 kts 221°
2026-05-03 21:05 34.79242 -12.46388 37145 ft 388 kts 221°
2026-05-03 21:05 34.74813 -12.50144 37150 ft 388 kts 221°
2026-05-03 21:06 34.70385 -12.53901 37150 ft 388 kts 221°
2026-05-03 21:06 34.65951 -12.57655 37154 ft 388 kts 221°
2026-05-03 21:07 34.61546 -12.61373 37160 ft 388 kts 221°
2026-05-03 21:07 34.57114 -12.65112 37136 ft 388 kts 220°
2026-05-03 21:08 34.52687 -12.68848 37141 ft 388 kts 221°
2026-05-03 21:08 34.48262 -12.72587 37148 ft 387 kts 220°
2026-05-03 21:09 34.43832 -12.76316 37148 ft 387 kts 220°
2026-05-03 21:09 34.40145 -12.79404 37150 ft 388 kts 220°
2026-05-03 21:10 34.35705 -12.83130 37145 ft 388 kts 220°
2026-05-03 21:10 34.31264 -12.86853 37145 ft 388 kts 220°
2026-05-03 21:11 34.26818 -12.90568 37123 ft 388 kts 220°
2026-05-03 21:11 34.22403 -12.94267 37131 ft 389 kts 220°
2026-05-03 21:12 34.20086 -12.96220 37136 ft 389 kts 220°
2026-05-03 21:12 34.17777 -12.98173 37141 ft 389 kts 220°
2026-05-03 21:13 34.16093 -12.99600 37146 ft 389 kts 220°
2026-05-03 21:13 34.14286 -13.01130 37144 ft 389 kts 220°
2026-05-03 21:14 34.11302 -13.03654 37149 ft 389 kts 220°
2026-05-03 21:14 34.06858 -13.07387 37156 ft 389 kts 220°
2026-05-03 21:15 34.02436 -13.11095 37120 ft 389 kts 220°
2026-05-03 21:15 33.97985 -13.14824 37143 ft 390 kts 220°
2026-05-03 21:16 33.93533 -13.18559 37147 ft 390 kts 220°
2026-05-03 21:16 33.89072 -13.22296 37158 ft 390 kts 220°
2026-05-03 21:17 33.84611 -13.26023 37157 ft 390 kts 220°
2026-05-03 21:17 33.80152 -13.29748 37161 ft 390 kts 220°
2026-05-03 21:18 33.75688 -13.33471 37159 ft 391 kts 220°
2026-05-03 21:18 33.71211 -13.37187 37135 ft 391 kts 220°
2026-05-03 21:19 33.66764 -13.40881 37147 ft 391 kts 220°
2026-05-03 21:19 33.62289 -13.44601 37157 ft 391 kts 220°
2026-05-03 21:20 33.57817 -13.48305 37163 ft 391 kts 220°
2026-05-03 21:20 33.53342 -13.52007 37169 ft 391 kts 220°
2026-05-03 21:21 33.48856 -13.55709 37169 ft 391 kts 220°
2026-05-03 21:21 33.44382 -13.59405 37125 ft 391 kts 220°
2026-05-03 21:22 33.39903 -13.63102 37136 ft 392 kts 220°
2026-05-03 21:22 33.35440 -13.66778 37140 ft 392 kts 220°
2026-05-03 21:23 33.30947 -13.70475 37145 ft 392 kts 220°
2026-05-03 21:23 33.26457 -13.74174 37151 ft 392 kts 220°
2026-05-03 21:24 33.21960 -13.77870 37150 ft 392 kts 220°
2026-05-03 21:24 33.17451 -13.81558 37127 ft 392 kts 220°
2026-05-03 21:25 33.12968 -13.85210 37134 ft 392 kts 220°
2026-05-03 21:25 33.08454 -13.88879 37146 ft 392 kts 220°
2026-05-03 21:26 33.03929 -13.92543 37148 ft 392 kts 220°
2026-05-03 21:26 32.99447 -13.96170 37150 ft 392 kts 220°
2026-05-03 21:27 32.94940 -13.99823 37154 ft 392 kts 220°
2026-05-03 21:27 32.90429 -14.03476 37156 ft 392 kts 220°
2026-05-03 21:28 32.85909 -14.07123 37139 ft 392 kts 220°
2026-05-03 21:28 32.81377 -14.10762 37141 ft 392 kts 220°
2026-05-03 21:29 32.76881 -14.14377 37148 ft 392 kts 220°
2026-05-03 21:29 32.72359 -14.18016 37152 ft 392 kts 220°
2026-05-03 21:30 32.67831 -14.21651 37149 ft 392 kts 220°
2026-05-03 21:30 32.63307 -14.25281 37151 ft 392 kts 220°
2026-05-03 21:31 32.58785 -14.28910 37152 ft 393 kts 220°
2026-05-03 21:31 32.54252 -14.32536 37153 ft 393 kts 219°
2026-05-03 21:32 32.49741 -14.36128 37157 ft 393 kts 219°
2026-05-03 21:32 32.45207 -14.39744 37157 ft 393 kts 220°
2026-05-03 21:33 32.40676 -14.43370 37157 ft 393 kts 220°
2026-05-03 21:33 32.36141 -14.46986 37155 ft 392 kts 219°
2026-05-03 21:34 32.31605 -14.50589 37151 ft 392 kts 219°
2026-05-03 21:34 32.27069 -14.54191 37128 ft 392 kts 219°
2026-05-03 21:35 32.22565 -14.57763 37136 ft 393 kts 219°
2026-05-03 21:35 32.18022 -14.61364 37142 ft 393 kts 219°
2026-05-03 21:36 32.13476 -14.64958 37146 ft 393 kts 219°
2026-05-03 21:36 32.08921 -14.68551 37152 ft 394 kts 219°
2026-05-03 21:37 32.04372 -14.72146 37155 ft 394 kts 219°
2026-05-03 21:37 31.99809 -14.75745 37132 ft 394 kts 219°
2026-05-03 21:38 31.95277 -14.79314 37144 ft 394 kts 219°
2026-05-03 21:38 31.90714 -14.82899 37149 ft 394 kts 219°
2026-05-03 21:39 31.86151 -14.86477 37163 ft 394 kts 219°
2026-05-03 21:39 31.81586 -14.90057 37170 ft 394 kts 219°
2026-05-03 21:40 31.77028 -14.93628 37167 ft 394 kts 219°
2026-05-03 21:40 31.72463 -14.97200 37131 ft 394 kts 219°
2026-05-03 21:41 31.67923 -15.00803 37131 ft 394 kts 219°
2026-05-03 21:41 31.63342 -15.04372 37131 ft 395 kts 219°
2026-05-03 21:42 31.58746 -15.07921 37142 ft 395 kts 219°
2026-05-03 21:42 31.54190 -15.11462 37153 ft 395 kts 219°
2026-05-03 21:43 31.49608 -15.15033 37146 ft 396 kts 219°
2026-05-03 21:43 31.45019 -15.18602 37160 ft 396 kts 219°
2026-05-03 21:44 31.40429 -15.22155 37134 ft 396 kts 219°
2026-05-03 21:44 31.35833 -15.25717 37142 ft 396 kts 219°
2026-05-03 21:45 31.31243 -15.29274 37154 ft 396 kts 219°
2026-05-03 21:45 31.26527 -15.32640 37157 ft 399 kts 215°
2026-05-03 21:46 31.21620 -15.35700 37163 ft 400 kts 213°
2026-05-03 21:46 31.16692 -15.38717 37163 ft 399 kts 214°
2026-05-03 21:47 31.11801 -15.41801 37142 ft 399 kts 214°
2026-05-03 21:47 31.06963 -15.44899 37151 ft 399 kts 215°
2026-05-03 21:48 31.02097 -15.48008 37158 ft 399 kts 214°
2026-05-03 21:48 30.97223 -15.51095 37160 ft 399 kts 214°
2026-05-03 21:49 30.92335 -15.54185 37166 ft 399 kts 214°
2026-05-03 21:49 30.87462 -15.57273 37168 ft 399 kts 214°
2026-05-03 21:50 30.82587 -15.60362 37137 ft 399 kts 214°
2026-05-03 21:50 30.77706 -15.63444 37146 ft 399 kts 214°
2026-05-03 21:51 30.72831 -15.66527 37173 ft 399 kts 214°
2026-05-03 21:51 30.67981 -15.69578 37175 ft 399 kts 214°
2026-05-03 21:52 30.63097 -15.72642 37171 ft 399 kts 214°
2026-05-03 21:52 30.58216 -15.75717 37170 ft 399 kts 214°
2026-05-03 21:53 30.55684 -15.77311 37176 ft 399 kts 214°
2026-05-03 21:53 30.54039 -15.78346 37139 ft 399 kts 214°
2026-05-03 21:54 30.49163 -15.81409 37141 ft 399 kts 214°
2026-05-03 21:54 30.44273 -15.84468 37151 ft 399 kts 214°
2026-05-03 21:55 30.39384 -15.87529 37156 ft 399 kts 214°
2026-05-03 21:55 30.34492 -15.90583 37162 ft 399 kts 214°
2026-05-03 21:56 30.30430 -15.93122 37165 ft 399 kts 214°
2026-05-03 21:56 30.24749 -15.96685 37148 ft 399 kts 214°
2026-05-03 21:57 30.20683 -15.99224 37153 ft 399 kts 214°
2026-05-03 21:57 30.15780 -16.02276 37163 ft 400 kts 214°
2026-05-03 21:58 30.10875 -16.05319 37171 ft 399 kts 214°
2026-05-03 21:58 30.05978 -16.08355 37174 ft 399 kts 214°
2026-05-03 21:59 30.01088 -16.11390 37176 ft 399 kts 214°
2026-05-03 21:59 29.96227 -16.14410 37176 ft 399 kts 214°
2026-05-03 22:00 29.91334 -16.17443 37154 ft 399 kts 214°
2026-05-03 22:00 29.86439 -16.20476 37159 ft 399 kts 214°
2026-05-03 22:01 29.81538 -16.23496 37163 ft 400 kts 214°
2026-05-03 22:01 29.76635 -16.26519 37165 ft 400 kts 214°
2026-05-03 22:02 29.71728 -16.29548 37167 ft 400 kts 214°
2026-05-03 22:02 29.66825 -16.32568 37169 ft 400 kts 214°
2026-05-03 22:03 29.61917 -16.35580 37172 ft 400 kts 214°
2026-05-03 22:03 29.57330 -16.38985 37178 ft 391 kts 224°
2026-05-03 22:04 29.53132 -16.42969 37179 ft 391 kts 224°
2026-05-03 22:04 29.48928 -16.46935 37178 ft 391 kts 224°
2026-05-03 22:05 29.44719 -16.50896 37177 ft 391 kts 224°
2026-05-03 22:05 29.40519 -16.54851 37176 ft 390 kts 224°
2026-05-03 22:06 29.36347 -16.58780 37178 ft 390 kts 224°
2026-05-03 22:06 29.32143 -16.62724 37154 ft 390 kts 224°
2026-05-03 22:07 29.27931 -16.66671 37156 ft 391 kts 224°
2026-05-03 22:07 29.23727 -16.70619 37162 ft 391 kts 224°
2026-05-03 22:08 29.19519 -16.74560 37145 ft 391 kts 224°
2026-05-03 22:08 29.17410 -16.76534 36881 ft 390 kts 224°
2026-05-03 22:08 29.15334 -16.78476 36627 ft 391 kts 224°
2026-05-03 22:09 29.13222 -16.80448 36373 ft 392 kts 223°
2026-05-03 22:09 29.11106 -16.82423 36117 ft 393 kts 223°
2026-05-03 22:09 29.08979 -16.84408 35603 ft 395 kts 223°
2026-05-03 22:10 29.04686 -16.88404 34125 ft 400 kts 223°
2026-05-03 22:10 29.02516 -16.90420 33221 ft 403 kts 223°
2026-05-03 22:10 29.00352 -16.92436 32750 ft 397 kts 223°
2026-05-03 22:10 28.98225 -16.94419 32224 ft 393 kts 223°
2026-05-03 22:11 28.96116 -16.96384 31700 ft 389 kts 223°
2026-05-03 22:11 28.94031 -16.98324 31187 ft 385 kts 222°
2026-05-03 22:11 28.91965 -17.00245 30682 ft 381 kts 222°
2026-05-03 22:11 28.89936 -17.02128 30179 ft 378 kts 222°
2026-05-03 22:12 28.87906 -17.04011 29638 ft 374 kts 222°
2026-05-03 22:12 28.85902 -17.05870 29151 ft 369 kts 222°
2026-05-03 22:12 28.83927 -17.07704 28676 ft 363 kts 222°
2026-05-03 22:12 28.81978 -17.09511 28197 ft 359 kts 222°
2026-05-03 22:13 28.80054 -17.11293 27750 ft 354 kts 222°
2026-05-03 22:13 28.78153 -17.13050 27294 ft 350 kts 222°
2026-05-03 22:13 28.76274 -17.14790 26858 ft 346 kts 222°
2026-05-03 22:13 28.74414 -17.16516 26421 ft 342 kts 222°
2026-05-03 22:14 28.72579 -17.18218 26010 ft 338 kts 222°
2026-05-03 22:14 28.70761 -17.19903 25582 ft 335 kts 222°
2026-05-03 22:14 28.68960 -17.21568 25188 ft 333 kts 222°
2026-05-03 22:14 28.67162 -17.23229 24795 ft 332 kts 222°
2026-05-03 22:15 28.65391 -17.24865 24405 ft 331 kts 222°
2026-05-03 22:15 28.63605 -17.26511 24008 ft 330 kts 222°
2026-05-03 22:15 28.61825 -17.28151 23585 ft 329 kts 222°
2026-05-03 22:15 28.60049 -17.29785 23146 ft 327 kts 222°
2026-05-03 22:16 28.58284 -17.31411 22755 ft 325 kts 222°
2026-05-03 22:16 28.56527 -17.33030 22339 ft 324 kts 222°
2026-05-03 22:16 28.54775 -17.34641 21943 ft 322 kts 222°
2026-05-03 22:16 28.53038 -17.36236 21537 ft 320 kts 222°
2026-05-03 22:17 28.51309 -17.37825 21139 ft 319 kts 222°
2026-05-03 22:17 28.49589 -17.39407 20721 ft 317 kts 222°
2026-05-03 22:17 28.47773 -17.40830 20315 ft 320 kts 209°
2026-05-03 22:17 28.45622 -17.41527 19860 ft 328 kts 189°
2026-05-03 22:18 28.43316 -17.41302 19379 ft 340 kts 169°
2026-05-03 22:18 28.41153 -17.40100 18839 ft 355 kts 147°
2026-05-03 22:18 28.39475 -17.37983 18247 ft 369 kts 126°
2026-05-03 22:18 28.38175 -17.35489 17659 ft 372 kts 124°
2026-05-03 22:19 28.36866 -17.32946 17149 ft 372 kts 124°
2026-05-03 22:19 28.35578 -17.30439 17006 ft 361 kts 124°
2026-05-03 22:19 28.34332 -17.28012 16864 ft 351 kts 124°
2026-05-03 22:19 28.33108 -17.25638 16570 ft 347 kts 124°
2026-05-03 22:20 28.31887 -17.23287 16201 ft 345 kts 124°
2026-05-03 22:20 28.30665 -17.20946 15851 ft 344 kts 124°
2026-05-03 22:20 28.29450 -17.18618 15514 ft 342 kts 124°
2026-05-03 22:20 28.28242 -17.16302 15188 ft 340 kts 124°
2026-05-03 22:21 28.27040 -17.14000 14846 ft 338 kts 123°
2026-05-03 22:21 28.25830 -17.11733 14338 ft 334 kts 125°
2026-05-03 22:21 28.24571 -17.09571 13728 ft 331 kts 127°
2026-05-03 22:21 28.23262 -17.07444 13070 ft 327 kts 128°
2026-05-03 22:22 28.21948 -17.05354 12456 ft 324 kts 128°
2026-05-03 22:22 28.20651 -17.03290 11905 ft 318 kts 127°
2026-05-03 22:22 28.19388 -17.01268 11571 ft 306 kts 127°
2026-05-03 22:22 28.18189 -16.99330 11453 ft 295 kts 127°
2026-05-03 22:23 28.16866 -16.97621 11318 ft 283 kts 143°
2026-05-03 22:23 28.15257 -16.96436 11160 ft 271 kts 159°
2026-05-03 22:23 28.13521 -16.95651 10909 ft 268 kts 162°
2026-05-03 22:23 28.11791 -16.94886 10617 ft 266 kts 162°
2026-05-03 22:24 28.10068 -16.94120 10333 ft 265 kts 162°
2026-05-03 22:24 28.08353 -16.93356 10048 ft 264 kts 161°
2026-05-03 22:24 28.06645 -16.92593 9730 ft 263 kts 161°
2026-05-03 22:24 28.04945 -16.91834 9413 ft 262 kts 161°
2026-05-03 22:25 28.03203 -16.91366 9091 ft 254 kts 185°
2026-05-03 22:25 28.01535 -16.91834 8762 ft 246 kts 212°
2026-05-03 22:25 28.00281 -16.93100 8316 ft 244 kts 239°
2026-05-03 22:25 27.99551 -16.94839 7842 ft 247 kts 249°
2026-05-03 22:26 27.98887 -16.96640 7349 ft 252 kts 249°
2026-05-03 22:26 27.98203 -16.98489 6873 ft 257 kts 249°
2026-05-03 22:26 27.97501 -17.00367 6384 ft 261 kts 248°
2026-05-03 22:26 27.96787 -17.02268 5894 ft 264 kts 248°
2026-05-03 22:27 27.96069 -17.04179 5387 ft 261 kts 249°
2026-05-03 22:27 27.95364 -17.06047 4891 ft 255 kts 249°
2026-05-03 22:27 27.94676 -17.07869 4392 ft 250 kts 249°
2026-05-03 22:27 27.94001 -17.09658 3895 ft 245 kts 249°
2026-05-03 22:28 27.93339 -17.11412 3415 ft 247 kts 249°
2026-05-03 22:28 27.92648 -17.13212 3048 ft 248 kts 244°
2026-05-03 22:28 27.91545 -17.14626 3000 ft 236 kts 212°
2026-05-03 22:28 27.90048 -17.15158 3004 ft 221 kts 180°
2026-05-03 22:29 27.88596 -17.14809 3008 ft 211 kts 155°
2026-05-03 22:29 27.87254 -17.14164 3011 ft 208 kts 156°
2026-05-03 22:29 27.85968 -17.13430 3014 ft 207 kts 139°
2026-05-03 22:29 27.85075 -17.12194 3015 ft 202 kts 111°
2026-05-03 22:30 27.84772 -17.10672 3015 ft 198 kts 85°
2026-05-03 22:30 27.85071 -17.09178 3018 ft 194 kts 64°
2026-05-03 22:30 27.85611 -17.07775 3016 ft 195 kts 64°
2026-05-03 22:30 27.86146 -17.06369 3017 ft 195 kts 64°
2026-05-03 22:31 27.86680 -17.04962 3017 ft 195 kts 64°
2026-05-03 22:31 27.87211 -17.03555 3026 ft 195 kts 64°
2026-05-03 22:31 27.87741 -17.02148 3027 ft 195 kts 64°
2026-05-03 22:31 27.88272 -17.00738 3027 ft 195 kts 64°
2026-05-03 22:32 27.88803 -16.99329 3024 ft 195 kts 64°
2026-05-03 22:32 27.89339 -16.97909 3026 ft 197 kts 64°
2026-05-03 22:32 27.89877 -16.96481 3029 ft 197 kts 64°
2026-05-03 22:32 27.90413 -16.95057 3030 ft 197 kts 65°
2026-05-03 22:33 27.90942 -16.93650 3031 ft 197 kts 65°
2026-05-03 22:33 27.91477 -16.92224 3032 ft 197 kts 65°
2026-05-03 22:33 27.92011 -16.90801 3025 ft 196 kts 65°
2026-05-03 22:33 27.92544 -16.89382 3026 ft 196 kts 65°
2026-05-03 22:34 27.93075 -16.87967 3026 ft 196 kts 65°
2026-05-03 22:34 27.93608 -16.86546 3022 ft 196 kts 65°
2026-05-03 22:34 27.94163 -16.85137 3023 ft 196 kts 63°
2026-05-03 22:34 27.94736 -16.83741 3023 ft 196 kts 63°
2026-05-03 22:35 27.95315 -16.82346 3020 ft 196 kts 61°
2026-05-03 22:35 27.96000 -16.81021 3020 ft 195 kts 59°
2026-05-03 22:35 27.96593 -16.79637 3018 ft 196 kts 64°
2026-05-03 22:35 27.97119 -16.78216 3021 ft 196 kts 66°
2026-05-03 22:36 27.97620 -16.76801 3016 ft 196 kts 66°
2026-05-03 22:36 27.98123 -16.75368 3016 ft 196 kts 66°
2026-05-03 22:36 27.98618 -16.73950 2921 ft 189 kts 66°
2026-05-03 22:36 27.99094 -16.72589 2713 ft 183 kts 66°
2026-05-03 22:37 27.99559 -16.71261 2473 ft 180 kts 67°
2026-05-03 22:37 28.00011 -16.69966 2265 ft 171 kts 66°
2026-05-03 22:37 28.00433 -16.68757 2057 ft 159 kts 65°
2026-05-03 22:37 28.00833 -16.67614 1826 ft 154 kts 65°
2026-05-03 22:38 28.01217 -16.66512 1609 ft 146 kts 67°
2026-05-03 22:38 28.01585 -16.65461 1413 ft 141 kts 66°
2026-05-03 22:38 28.01935 -16.64459 1240 ft 135 kts 66°
2026-05-03 22:38 28.02277 -16.63485 1123 ft 131 kts 65°
2026-05-03 22:39 28.02606 -16.62506 957 ft 133 kts 68°
2026-05-03 22:39 28.02944 -16.61537 764 ft 134 kts 68°
2026-05-03 22:39 28.03292 -16.60560 583 ft 132 kts 68°
2026-05-03 22:39 28.03627 -16.59625 435 ft 130 kts 70°
2026-05-03 22:40 28.03955 -16.58646 249 ft 130 kts 70°
2026-05-03 22:40 28.04293 -16.57719 202 ft 117 kts 65°
2026-05-03 22:40 28.04361 -16.57144 208 ft 33 kts 102°
2026-05-03 22:40 28.04345 -16.57099 203 ft 0 kts 118°
2026-05-03 22:41 28.04337 -16.57088 202 ft 0 kts 143°
2026-05-03 22:42 28.04333 -16.57089 196 ft 4 kts 182°
2026-05-03 22:42 28.04371 -16.57169 202 ft 5 kts 357°
2026-05-03 22:42 28.04377 -16.57169 209 ft 8 kts
2026-05-03 22:42 28.04427 -16.57159 200 ft 10 kts 16°
2026-05-03 22:43 28.04466 -16.57132 206 ft 0 kts 46°
2026-05-03 22:43 28.04487 -16.57096 204 ft 0 kts 62°
2026-05-03 22:43 28.04492 -16.57043 204 ft 13 kts 98°
2026-05-03 22:43 28.04489 -16.57017 204 ft 0 kts 104°
2026-05-03 22:44 28.04442 -16.56985 203 ft 27 kts 158°
2026-05-03 22:44 28.04208 -16.57257 194 ft 73 kts 259°
2026-05-03 22:44 28.04310 -16.57675 201 ft 0 kts 74°